Williams, AZ

11:03 AM MST on September 27, 2016 (GMT -0700)
Williams

Weather History for KCMR - August, 2013

Change the Weather History Date:

Thursday, August 1, 2013

  Actual Average (KFLG) Record (KFLG)
Temperature  
Mean Temperature 71 °F 66 °F  
Max Temperature 80 °F 80 °F 92 °F (1977)
Min Temperature 62 °F 52 °F 42 °F (1915)
Degree Days  
Heating Degree Days 0 1  
Month to date heating degree days 1  
Since 1 July heating degree days 33  
Cooling Degree Days 6 2  
Month to date cooling degree days 2  
Year to date cooling degree days 83  
Growing Degree Days 21 (Base 50)    
Moisture  
Dew Point 52 °F    
Average Humidity 54    
Maximum Humidity 77    
Minimum Humidity 39    
Precipitation  
Precipitation 0.00 in 0.11 in 1.38 in (1906)
Month to date precipitation 0.11  
Year to date precipitation 11.19  
Sea Level Pressure  
Sea Level Pressure 30.36 in    
Wind  
Wind Speed 9 mph (SSE)    
Max Wind Speed 18 mph    
Max Gust Speed 28 mph    
Visibility 10 miles    
Events      
T = Trace of Precipitation, MM = Missing Value Source: NWS Daily Summary

Daily Weather History Graph

Daily Weather History Graph

Search for Another Location

Airport or City:

Trip Planner

Search our weather history database for the weather conditions in past years. The results will help you decide how hot, cold, wet, or windy it might be!

Date:

Astronomy

Aug. 01, 2013 Rise Set
Actual Time 5:37 AM MST 7:31 PM MST
Civil Twilight 5:09 AM MST 7:59 PM MST
Nautical Twilight 4:36 AM MST 8:33 PM MST
Astronomical Twilight 3:59 AM MST 9:09 PM MST
Moon 1:17 AM MST (8/1) 3:42 PM MST (8/1)
Length of Visible Light 14h 49m
Length of Day
13h 54m
Waning Crescent, 22% of the Moon is Illuminated
Aug 1
Waning Crescent
Aug 6
New
Aug 14
First Quarter
Aug 20
Full
Aug 28
Last Quarter

Hourly Weather History & Observations

Time (MST) Temp. Heat Index Dew Point Humidity Pressure Visibility Wind Dir Wind Speed Gust Speed Precip Events Conditions
12:15 AM 66.2 °F - 50.0 °F 56% 30.41 in 10.0 mi SSE 6.9 mph - N/A   Clear
12:35 AM 66.2 °F - 50.0 °F 56% 30.40 in 10.0 mi SSE 8.1 mph - N/A   Clear
12:55 AM 64.4 °F - 50.0 °F 59% 30.39 in 10.0 mi SE 4.6 mph - N/A   Clear
1:15 AM 66.2 °F - 50.0 °F 56% 30.39 in 10.0 mi SSE 8.1 mph - N/A   Clear
1:35 AM 66.2 °F - 48.2 °F 52% 30.39 in 10.0 mi South 9.2 mph - N/A   Clear
1:55 AM 68.0 °F - 48.2 °F 49% 30.38 in 10.0 mi SSE 9.2 mph - N/A   Partly Cloudy
2:15 AM 68.0 °F - 50.0 °F 52% 30.38 in 10.0 mi SSE 9.2 mph - N/A   Mostly Cloudy
2:35 AM 66.2 °F - 50.0 °F 56% 30.38 in 10.0 mi SSE 9.2 mph - N/A   Scattered Clouds
2:55 AM 68.0 °F - 50.0 °F 52% 30.37 in 10.0 mi SSE 8.1 mph - N/A   Mostly Cloudy
3:15 AM 68.0 °F - 50.0 °F 52% 30.37 in 10.0 mi SSE 4.6 mph - N/A   Overcast
3:35 AM 64.4 °F - 50.0 °F 59% 30.37 in 10.0 mi East 5.8 mph - N/A   Overcast
3:55 AM 64.4 °F - 50.0 °F 59% 30.37 in 10.0 mi East 3.5 mph - N/A   Scattered Clouds
4:15 AM 64.4 °F - 50.0 °F 59% 30.37 in 10.0 mi ESE 4.6 mph - N/A   Clear
4:35 AM 62.6 °F - 50.0 °F 63% 30.37 in 10.0 mi SE 4.6 mph - N/A   Partly Cloudy
4:55 AM 62.6 °F - 50.0 °F 63% 30.38 in 10.0 mi SSE 4.6 mph - N/A   Mostly Cloudy
5:15 AM 62.6 °F - 50.0 °F 63% 30.38 in 10.0 mi SSE 5.8 mph - N/A   Scattered Clouds
5:35 AM 62.6 °F - 50.0 °F 63% 30.38 in 10.0 mi SSE 6.9 mph - N/A   Partly Cloudy
5:55 AM 62.6 °F - 50.0 °F 63% 30.39 in 10.0 mi SSE 5.8 mph - N/A   Partly Cloudy
6:15 AM 62.6 °F - 50.0 °F 63% 30.39 in 10.0 mi SSE 5.8 mph - N/A   Clear
6:35 AM 62.6 °F - 50.0 °F 63% 30.39 in 10.0 mi South 6.9 mph - N/A   Clear
6:55 AM 64.4 °F - 51.8 °F 64% 30.39 in 10.0 mi SSE 6.9 mph - N/A   Clear
7:15 AM 66.2 °F - 53.6 °F 64% 30.40 in 10.0 mi SSE 5.8 mph - N/A   Mostly Cloudy
7:35 AM 68.0 °F - 53.6 °F 60% 30.40 in 10.0 mi SE 5.8 mph - N/A   Partly Cloudy
7:55 AM 71.6 °F - 53.6 °F 53% 30.40 in 10.0 mi SSE 4.6 mph - N/A   Clear
8:15 AM 71.6 °F - 50.0 °F 46% 30.40 in 10.0 mi South 4.6 mph - N/A   Clear
8:35 AM 73.4 °F - 50.0 °F 44% 30.40 in 10.0 mi SW 3.5 mph - N/A   Scattered Clouds
8:55 AM 75.2 °F - 50.0 °F 41% 30.40 in 10.0 mi SSW 3.5 mph - N/A   Mostly Cloudy
9:15 AM 73.4 °F - 50.0 °F 44% 30.40 in 10.0 mi SW 8.1 mph - N/A   Mostly Cloudy
9:35 AM 73.4 °F - 51.8 °F 47% 30.41 in 10.0 mi SSW 6.9 mph - N/A   Mostly Cloudy
9:55 AM 73.4 °F - 50.0 °F 44% 30.41 in 10.0 mi SW 8.1 mph - N/A   Mostly Cloudy
10:15 AM 73.4 °F - 51.8 °F 47% 30.40 in 10.0 mi SW 9.2 mph - N/A   Mostly Cloudy
10:35 AM 73.4 °F - 51.8 °F 47% 30.40 in 10.0 mi South 5.8 mph - N/A   Scattered Clouds
10:55 AM 73.4 °F - 51.8 °F 47% 30.40 in 10.0 mi South 5.8 mph - N/A   Mostly Cloudy
11:15 AM 75.2 °F - 53.6 °F 47% 30.40 in 10.0 mi SSW 8.1 mph - N/A   Mostly Cloudy
11:35 AM 77.0 °F - 51.8 °F 41% 30.39 in 10.0 mi South 15.0 mph - N/A   Scattered Clouds
11:55 AM 75.2 °F - 50.0 °F 41% 30.39 in 10.0 mi SSW 10.4 mph 18.4 mph N/A   Scattered Clouds
12:15 PM 77.0 °F - 51.8 °F 41% 30.38 in 10.0 mi South 11.5 mph - N/A   Partly Cloudy
12:35 PM 80.6 °F 80.3 °F 53.6 °F 39% 30.38 in 10.0 mi SSW 13.8 mph 19.6 mph N/A   Clear
12:55 PM 78.8 °F - 51.8 °F 39% 30.37 in 10.0 mi SW 10.4 mph 20.7 mph N/A   Clear
1:15 PM 78.8 °F - 51.8 °F 39% 30.37 in 10.0 mi WSW 15.0 mph 21.9 mph N/A   Clear
1:35 PM 77.0 °F - 53.6 °F 44% 30.36 in 10.0 mi SSW 15.0 mph 21.9 mph N/A   Partly Cloudy
1:55 PM 77.0 °F - 53.6 °F 44% 30.36 in 10.0 mi SW 12.7 mph 18.4 mph N/A   Scattered Clouds
2:15 PM 75.2 °F - 55.4 °F 50% 30.35 in 10.0 mi SSW 16.1 mph 21.9 mph N/A   Mostly Cloudy
2:35 PM 78.8 °F - 53.6 °F 42% 30.34 in 10.0 mi SSW 17.3 mph 25.3 mph N/A   Partly Cloudy
2:55 PM 80.6 °F 80.3 °F 53.6 °F 39% 30.33 in 10.0 mi South 16.1 mph - N/A   Clear
3:15 PM 78.8 °F - 53.6 °F 42% 30.33 in 10.0 mi South 17.3 mph 25.3 mph N/A   Clear
3:35 PM 78.8 °F - 53.6 °F 42% 30.32 in 10.0 mi South 18.4 mph 27.6 mph N/A   Partly Cloudy
3:55 PM 78.8 °F - 53.6 °F 42% 30.31 in 10.0 mi SSW 15.0 mph 19.6 mph N/A   Clear
4:15 PM 78.8 °F - 53.6 °F 42% 30.31 in 10.0 mi South 13.8 mph 20.7 mph N/A   Clear
4:35 PM 78.8 °F - 53.6 °F 42% 30.31 in 10.0 mi South 11.5 mph 20.7 mph N/A   Clear
4:55 PM 77.0 °F - 55.4 °F 47% 30.30 in 10.0 mi SE 15.0 mph 19.6 mph N/A   Clear
5:15 PM 75.2 °F - 55.4 °F 50% 30.31 in 10.0 mi SSE 15.0 mph 23.0 mph N/A   Clear
5:35 PM 73.4 °F - 55.4 °F 53% 30.31 in 10.0 mi SSE 15.0 mph 21.9 mph N/A   Clear
5:55 PM 73.4 °F - 55.4 °F 53% 30.30 in 10.0 mi SSE 12.7 mph 20.7 mph N/A   Clear
6:15 PM 73.4 °F - 55.4 °F 53% 30.30 in 10.0 mi South 13.8 mph 20.7 mph N/A   Clear
6:35 PM 73.4 °F - 55.4 °F 53% 30.31 in 10.0 mi SSE 16.1 mph 20.7 mph N/A   Clear
6:55 PM 73.4 °F - 55.4 °F 53% 30.31 in 10.0 mi SSE 12.7 mph - N/A   Clear
7:15 PM 71.6 °F - 55.4 °F 57% 30.31 in 10.0 mi SSE 12.7 mph - N/A   Clear
7:35 PM 69.8 °F - 55.4 °F 60% 30.31 in 10.0 mi SSE 16.1 mph - N/A   Clear
7:55 PM 68.0 °F - 55.4 °F 64% 30.31 in 10.0 mi SSE 10.4 mph - N/A   Clear
8:15 PM 68.0 °F - 55.4 °F 64% 30.31 in 10.0 mi SSE 10.4 mph - N/A   Clear
8:35 PM 68.0 °F - 55.4 °F 64% 30.32 in 10.0 mi SSE 9.2 mph - N/A   Clear
8:55 PM 68.0 °F - 53.6 °F 60% 30.33 in 10.0 mi SSE 9.2 mph - N/A   Clear
9:15 PM 68.0 °F - 53.6 °F 60% 30.34 in 10.0 mi SSE 8.1 mph - N/A   Clear
9:35 PM 66.2 °F - 53.6 °F 64% 30.34 in 10.0 mi SE 6.9 mph - N/A   Clear
9:55 PM 64.4 °F - 55.4 °F 73% 30.34 in 10.0 mi SE 9.2 mph - N/A   Clear
10:15 PM 64.4 °F - 55.4 °F 73% 30.34 in 10.0 mi SSE 8.1 mph - N/A   Clear
10:35 PM 64.4 °F - 55.4 °F 73% 30.35 in 10.0 mi SE 8.1 mph - N/A   Clear
10:55 PM 64.4 °F - 55.4 °F 73% 30.34 in 10.0 mi SSE 5.8 mph - N/A   Clear
11:15 PM 62.6 °F - 55.4 °F 77% 30.34 in 10.0 mi SE 6.9 mph - N/A   Clear
11:35 PM 62.6 °F - 55.4 °F 77% 30.34 in 10.0 mi SE 5.8 mph - N/A   Clear
11:55 PM 64.4 °F - 53.6 °F 68% 30.34 in 10.0 mi South 9.2 mph - N/A   Clear